Regional Weather Roundup
Issued by NWS

Home | Current Version | Previous Version | Text Only | Print | Product List | Glossary Off
Versions: 1 2 3 4 5 6 7 8 9 10 11 12 13 14 15 16 17 18 19 20 21 22 23 24 25 26 27 28 29 30 31 32 33 34 35 36 37 38 39 40 41 42 43 44 45 46 47 48 49 50

849
ASUS44 KLIX 210110
RWRLA
LOUISIANA WEATHER ROUNDUP
NATIONAL WEATHER SERVICE NEW ORLEANS LA
800 PM CDT MON OCT 20 2014

NOTE: "FAIR" INDICATES FEW OR NO CLOUDS BELOW 12,000 FEET WITH NO
      SIGNIFICANT WEATHER AND/OR OBSTRUCTIONS TO VISIBILITY.
      SKY/WX - SKY CONDITION AND SIGNIFICANT WEATHER.
      TMP - AIR TEMPERATURE.    DP   - DEWPOINT TEMPERATURE.
      RH  - RELATIVE HUMIDITY.  PRES - PRESSURE.
      HX  - HEAT INDEX.         WCI  - WIND CHILL INDEX.

*  THESE STATIONS ARE NOT NWS OR FAA STATIONS AND ARE NOT UNDER
   NWS QUALITY CONTROL.

LAZ040-048-061>063-065-066-069-210200-
SOUTHEAST LOUISIANA

CITY           SKY/WX    TMP DP  RH WIND       PRES   REMARKS
N.O. AUDUBON   NOT AVBL
N.O. INTL ARPT PTCLDY    70  54  56 N6        30.01R
N.O. LAKEFRONT CLEAR     72  56  57 N7        30.01S
N.O. DOWNTOWN* FAIR      73  52  46 CALM      30.01S
SLIDELL        CLEAR     61  57  87 CALM      30.00S
BATON ROUGE    PTCLDY    62  58  86 CALM      30.02R
BOOTHVILLE     CLEAR     72  65  78 NE6       30.00S
BELLE CHASSE   PTCLDY    62  56  80 CALM      30.00S
BOGALUSA*        N/A     60  53  76 CALM      30.03R
NEW ROADS*     FAIR      63  57  80 CALM      30.02S
GONZALES*      FAIR      61  61 100 CALM      30.01S
HAMMOND*       PTCLDY    61  55  82 CALM      30.03S
HOUMA*         CLEAR     64  56  75 NE5       30.00R
PORT FOURCHON* CLEAR     73  64  73 NE8       30.02S

$$

LAZ041-044-053-054-210200-
SOUTHWEST LOUISIANA

CITY           SKY/WX    TMP DP  RH WIND       PRES   REMARKS
LAKE CHARLES   CLEAR     67  56  67 NE5       30.01R
LAFAYETTE      CLEAR     64  60  87 NE3       30.02R
PATTERSON        N/A    N/A N/A N/A CALM        N/A
SALT POINT       N/A     71  59  65 N3        30.00R
NEW IBERIA     PTCLDY    67  58  72 N6        30.02R
CHENAULT AIRPK NOT AVBL

$$

LAZ027-028-210200-
CENTRAL LOUISIANA

CITY           SKY/WX    TMP DP  RH WIND       PRES   REMARKS
FORT POLK      CLEAR     61  56  83 NE5       30.03R
ALEXANDRIA INT CLEAR     61  56  83 CALM      30.02R
ALEXANDRIA     CLEAR     60  57  89 CALM      30.04R

$$

LAZ001-002-210200-
NORTHWEST LOUISIANA

CITY           SKY/WX    TMP DP  RH WIND       PRES   REMARKS
SHREVEPORT     PTCLDY    66  54  65 CALM      30.03S
BARKSDALE AFB  CLEAR     64  56  76 CALM      30.04R
DTN SHREVEPORT CLEAR     63  55  75 CALM      30.04R

$$

LAZ014-016-210200-
NORTHEAST LOUISIANA

CITY           SKY/WX    TMP DP  RH WIND       PRES   REMARKS
MONROE         CLEAR     60  56  86 CALM      30.05R
TALLULAH       CLEAR     56  53  90 CALM      30.04R

$$




USA.gov is the U.S. government's official web portal to all federal, state and local government web resources and services.